AFR003 FVRG-FQMA

Flight info

Callsign AFR003
Flight time 2h 0m
Altitude 2000
Route FVRG/23 DCT FQMA/05
Aircraft C130/M-V/C

Departure

Time 2026-05-06 18:16
Airport Robert Gabriel Mugabe International Airport (FVRG)

Arrival

Time 2026-05-06 20:16
Airport Maputo Airport (FQMA)
Time Latitude Longitude Altitude Speed Heading
2026-05-06 18:04 -17.91965 31.10062 4911 ft 0 kts 44°
2026-05-06 18:05 -17.91964 31.10062 4911 ft 0 kts 44°
2026-05-06 18:06 -17.91933 31.10122 4912 ft 16 kts 86°
2026-05-06 18:06 -17.91975 31.10238 4911 ft 10 kts 114°
2026-05-06 18:06 -17.92026 31.10224 4910 ft 9 kts 227°
2026-05-06 18:06 -17.92071 31.10174 4909 ft 9 kts 226°
2026-05-06 18:07 -17.92116 31.10126 4909 ft 9 kts 224°
2026-05-06 18:07 -17.92170 31.10076 4906 ft 11 kts 222°
2026-05-06 18:07 -17.92229 31.10017 4904 ft 12 kts 226°
2026-05-06 18:07 -17.92290 31.09950 4901 ft 13 kts 226°
2026-05-06 18:08 -17.92362 31.09873 4896 ft 15 kts 224°
2026-05-06 18:08 -17.92446 31.09788 4892 ft 17 kts 223°
2026-05-06 18:08 -17.92536 31.09694 4887 ft 18 kts 226°
2026-05-06 18:08 -17.92631 31.09592 4881 ft 20 kts 225°
2026-05-06 18:09 -17.92735 31.09485 4875 ft 21 kts 225°
2026-05-06 18:09 -17.92842 31.09372 4869 ft 22 kts 225°
2026-05-06 18:09 -17.92955 31.09253 4863 ft 22 kts 226°
2026-05-06 18:09 -17.93067 31.09138 4860 ft 22 kts 224°
2026-05-06 18:10 -17.93177 31.09023 4856 ft 22 kts 226°
2026-05-06 18:10 -17.93283 31.08914 4854 ft 20 kts 224°
2026-05-06 18:10 -17.93384 31.08807 4850 ft 20 kts 225°
2026-05-06 18:10 -17.93487 31.08699 4844 ft 21 kts 225°
2026-05-06 18:11 -17.93596 31.08586 4839 ft 21 kts 224°
2026-05-06 18:11 -17.93669 31.08511 4837 ft 21 kts 226°
2026-05-06 18:11 -17.93810 31.08361 4831 ft 21 kts 225°
2026-05-06 18:11 -17.93913 31.08254 4827 ft 21 kts 225°
2026-05-06 18:12 -17.94017 31.08146 4823 ft 20 kts 225°
2026-05-06 18:12 -17.94118 31.08038 4819 ft 20 kts 226°
2026-05-06 18:12 -17.94217 31.07931 4815 ft 20 kts 227°
2026-05-06 18:12 -17.94319 31.07829 4811 ft 20 kts 224°
2026-05-06 18:13 -17.94421 31.07721 4807 ft 21 kts 226°
2026-05-06 18:13 -17.94530 31.07608 4803 ft 19 kts 224°
2026-05-06 18:13 -17.94611 31.07611 4801 ft 5 kts 134°
2026-05-06 18:13 -17.94618 31.07617 4802 ft 0 kts 134°
2026-05-06 18:14 -17.94618 31.07618 4802 ft 0 kts 134°
2026-05-06 18:14 -17.94659 31.07696 4802 ft 21 kts 96°
2026-05-06 18:15 -17.94587 31.07815 4806 ft 19 kts 44°
2026-05-06 18:15 -17.94371 31.08039 4813 ft 75 kts 44°
2026-05-06 18:15 -17.93881 31.08557 4833 ft 119 kts 45°
2026-05-06 18:15 -17.93290 31.09180 5171 ft 115 kts 45°
2026-05-06 18:16 -17.92703 31.09759 5513 ft 119 kts 39°
2026-05-06 18:16 -17.92041 31.10354 5844 ft 125 kts 40°
2026-05-06 18:16 -17.91331 31.10938 6020 ft 146 kts 37°
2026-05-06 18:16 -17.90464 31.11742 5725 ft 195 kts 55°
2026-05-06 18:17 -17.90111 31.13097 5984 ft 204 kts 91°
2026-05-06 18:17 -17.90735 31.14449 6352 ft 201 kts 133°
2026-05-06 18:17 -17.91847 31.15229 6993 ft 184 kts 162°
2026-05-06 18:17 -17.93127 31.15313 7270 ft 191 kts 192°
2026-05-06 18:18 -17.94551 31.15316 7231 ft 216 kts 165°
2026-05-06 18:18 -17.96103 31.15604 7219 ft 235 kts 168°
2026-05-06 18:18 -17.97784 31.15928 7214 ft 249 kts 171°
2026-05-06 18:18 -17.99549 31.16255 7213 ft 261 kts 170°
2026-05-06 18:19 -18.01391 31.16589 7215 ft 270 kts 168°
2026-05-06 18:19 -18.03299 31.16933 7210 ft 277 kts 169°
2026-05-06 18:19 -18.05212 31.17287 7210 ft 282 kts 170°
2026-05-06 18:19 -18.07202 31.17639 7210 ft 286 kts 171°
2026-05-06 18:20 -18.09198 31.17995 7211 ft 289 kts 172°
2026-05-06 18:20 -18.11205 31.18390 7212 ft 290 kts 170°
2026-05-06 18:20 -18.13170 31.18992 7201 ft 292 kts 165°
2026-05-06 18:20 -18.15154 31.19599 7213 ft 292 kts 162°
2026-05-06 18:21 -18.17149 31.20200 7212 ft 294 kts 162°
2026-05-06 18:21 -18.19113 31.20917 7361 ft 290 kts 160°
2026-05-06 18:21 -18.21093 31.21520 7244 ft 295 kts 166°
2026-05-06 18:21 -18.23099 31.22096 7308 ft 295 kts 165°
2026-05-06 18:22 -18.25132 31.22772 7218 ft 299 kts 165°
2026-05-06 18:22 -18.27143 31.23412 7206 ft 292 kts 163°
2026-05-06 18:22 -18.29134 31.24031 7204 ft 287 kts 162°
2026-05-06 18:22 -18.31040 31.24624 7202 ft 284 kts 163°
2026-05-06 18:23 -18.32933 31.25224 7203 ft 281 kts 164°
2026-05-06 18:23 -18.34812 31.25824 7200 ft 278 kts 164°
2026-05-06 18:23 -18.36710 31.26430 7198 ft 277 kts 164°
2026-05-06 18:23 -18.38557 31.27019 7197 ft 276 kts 163°
2026-05-06 18:24 -18.40411 31.27609 7196 ft 275 kts 163°
2026-05-06 18:24 -18.42265 31.28202 7195 ft 274 kts 163°
2026-05-06 18:24 -18.44120 31.28796 7193 ft 274 kts 164°
2026-05-06 18:24 -18.45976 31.29394 7193 ft 274 kts 164°
2026-05-06 18:25 -18.47856 31.30000 7192 ft 273 kts 164°
2026-05-06 18:25 -18.49718 31.30605 7190 ft 273 kts 164°
2026-05-06 18:25 -18.51561 31.31204 7190 ft 272 kts 163°
2026-05-06 18:25 -18.53406 31.31804 7191 ft 272 kts 163°
2026-05-06 18:26 -18.55279 31.32415 7188 ft 272 kts 163°
2026-05-06 18:26 -18.57128 31.33022 7185 ft 273 kts 163°
2026-05-06 18:26 -18.58985 31.33630 7183 ft 273 kts 163°
2026-05-06 18:26 -18.60816 31.34231 7181 ft 273 kts 163°
2026-05-06 18:27 -18.62667 31.34843 7180 ft 273 kts 163°
2026-05-06 18:27 -18.64511 31.35453 7179 ft 273 kts 163°
2026-05-06 18:27 -18.66334 31.36059 7177 ft 273 kts 163°
2026-05-06 18:27 -18.68146 31.36662 7177 ft 273 kts 163°
2026-05-06 18:28 -18.70014 31.37284 7174 ft 273 kts 163°
2026-05-06 18:28 -18.71858 31.37897 7172 ft 273 kts 163°
2026-05-06 18:28 -18.73718 31.38515 7171 ft 273 kts 163°
2026-05-06 18:28 -18.75557 31.39129 7173 ft 273 kts 163°
2026-05-06 18:29 -18.77386 31.39738 7171 ft 273 kts 163°
2026-05-06 18:29 -18.79226 31.40352 7169 ft 273 kts 163°
2026-05-06 18:29 -18.81074 31.40973 7170 ft 273 kts 163°
2026-05-06 18:29 -18.82898 31.41584 7166 ft 274 kts 163°
2026-05-06 18:30 -18.84743 31.42204 7168 ft 273 kts 163°
2026-05-06 18:30 -18.86577 31.42819 7167 ft 273 kts 163°
2026-05-06 18:30 -18.88433 31.43444 7164 ft 273 kts 163°
2026-05-06 18:30 -18.90276 31.44065 7161 ft 273 kts 163°
2026-05-06 18:31 -18.92159 31.44700 7157 ft 273 kts 164°
2026-05-06 18:31 -18.94025 31.45221 7154 ft 273 kts 165°
2026-05-06 18:31 -18.95902 31.45746 7154 ft 273 kts 166°
2026-05-06 18:31 -18.97783 31.46277 7155 ft 272 kts 166°
2026-05-06 18:32 -18.99619 31.46798 7152 ft 272 kts 167°
2026-05-06 18:32 -19.01506 31.47329 7149 ft 272 kts 166°
2026-05-06 18:32 -19.03348 31.47845 7145 ft 272 kts 166°
2026-05-06 18:32 -19.05196 31.48360 7149 ft 272 kts 166°
2026-05-06 18:33 -19.07050 31.48879 7141 ft 273 kts 166°
2026-05-06 18:33 -19.08904 31.49398 7133 ft 273 kts 166°
2026-05-06 18:33 -19.10747 31.49920 7138 ft 272 kts 166°
2026-05-06 18:33 -19.12599 31.50448 7135 ft 272 kts 166°
2026-05-06 18:34 -19.14458 31.50976 7125 ft 273 kts 166°
2026-05-06 18:34 -19.16314 31.51508 7118 ft 273 kts 166°
2026-05-06 18:34 -19.18178 31.52044 7113 ft 272 kts 166°
2026-05-06 18:34 -19.20048 31.52580 7109 ft 272 kts 166°
2026-05-06 18:35 -19.21895 31.53110 7107 ft 272 kts 166°
2026-05-06 18:35 -19.23745 31.53635 7104 ft 272 kts 166°
2026-05-06 18:35 -19.25610 31.54168 7102 ft 272 kts 166°
2026-05-06 18:35 -19.27467 31.54696 7105 ft 272 kts 166°
2026-05-06 18:36 -19.29340 31.55233 7103 ft 272 kts 166°
2026-05-06 18:36 -19.31208 31.55769 7101 ft 272 kts 166°
2026-05-06 18:36 -19.33081 31.56305 7098 ft 272 kts 166°
2026-05-06 18:36 -19.34926 31.56830 7094 ft 272 kts 166°
2026-05-06 18:37 -19.36791 31.57365 7094 ft 272 kts 166°
2026-05-06 18:37 -19.38024 31.57722 7093 ft 272 kts 166°
2026-05-06 18:37 -19.40502 31.58435 7093 ft 272 kts 166°
2026-05-06 18:37 -19.42381 31.58977 7090 ft 272 kts 165°
2026-05-06 18:38 -19.44213 31.59507 7085 ft 272 kts 165°
2026-05-06 18:38 -19.46081 31.60047 7083 ft 272 kts 166°
2026-05-06 18:38 -19.47914 31.60580 7081 ft 272 kts 166°
2026-05-06 18:38 -19.49773 31.61121 7084 ft 272 kts 166°
2026-05-06 18:39 -19.51663 31.61674 7089 ft 272 kts 165°
2026-05-06 18:39 -19.53553 31.62224 7085 ft 272 kts 165°
2026-05-06 18:39 -19.55405 31.62761 7078 ft 273 kts 165°
2026-05-06 18:40 -19.59171 31.63861 7074 ft 273 kts 165°
2026-05-06 18:40 -19.61044 31.64409 7071 ft 273 kts 165°
2026-05-06 18:40 -19.62917 31.64962 7072 ft 273 kts 165°
2026-05-06 18:40 -19.64821 31.65526 7072 ft 272 kts 165°
2026-05-06 18:41 -19.66707 31.66088 7074 ft 272 kts 165°
2026-05-06 18:41 -19.68568 31.66642 7068 ft 273 kts 165°
2026-05-06 18:41 -19.70476 31.67213 7066 ft 273 kts 165°
2026-05-06 18:41 -19.72371 31.67771 7061 ft 272 kts 165°
2026-05-06 18:42 -19.74257 31.68323 7057 ft 273 kts 165°
2026-05-06 18:42 -19.76133 31.68870 7057 ft 273 kts 165°
2026-05-06 18:42 -19.77989 31.69411 7055 ft 273 kts 165°
2026-05-06 18:42 -19.79861 31.69959 7055 ft 273 kts 165°
2026-05-06 18:43 -19.81714 31.70505 7057 ft 273 kts 165°
2026-05-06 18:43 -19.83597 31.71063 7058 ft 273 kts 165°
2026-05-06 18:43 -19.85446 31.71615 7057 ft 273 kts 165°
2026-05-06 18:43 -19.87331 31.72176 7056 ft 273 kts 165°
2026-05-06 18:44 -19.89188 31.72728 7056 ft 273 kts 165°
2026-05-06 18:44 -19.91043 31.73281 7057 ft 273 kts 165°
2026-05-06 18:44 -19.92886 31.73831 7058 ft 272 kts 165°
2026-05-06 18:44 -19.94736 31.74383 7060 ft 272 kts 165°
2026-05-06 18:45 -19.96575 31.74937 7061 ft 272 kts 165°
2026-05-06 18:45 -19.98411 31.75489 7063 ft 272 kts 164°
2026-05-06 18:45 -20.00242 31.76038 7061 ft 272 kts 164°
2026-05-06 18:45 -20.01482 31.76409 7053 ft 272 kts 165°
2026-05-06 18:46 -20.03934 31.77140 7046 ft 272 kts 165°
2026-05-06 18:46 -20.05790 31.77694 7045 ft 273 kts 165°
2026-05-06 18:46 -20.07630 31.78244 7036 ft 273 kts 164°
2026-05-06 18:46 -20.09474 31.78800 7028 ft 273 kts 164°
2026-05-06 18:47 -20.11304 31.79356 7024 ft 273 kts 164°
2026-05-06 18:47 -20.13132 31.79914 7022 ft 272 kts 164°
2026-05-06 18:47 -20.14970 31.80479 7014 ft 272 kts 164°
2026-05-06 18:47 -20.16802 31.81046 7005 ft 272 kts 164°
2026-05-06 18:48 -20.18637 31.81615 7003 ft 272 kts 164°
2026-05-06 18:48 -20.20456 31.82177 7000 ft 271 kts 164°
2026-05-06 18:48 -20.22304 31.82748 6997 ft 271 kts 164°
2026-05-06 18:48 -20.24144 31.83314 6993 ft 272 kts 164°
2026-05-06 18:49 -20.25977 31.83879 6993 ft 272 kts 164°
2026-05-06 18:49 -20.27833 31.84451 6987 ft 273 kts 164°
2026-05-06 18:49 -20.29680 31.85022 6987 ft 273 kts 164°
2026-05-06 18:49 -20.31526 31.85595 6986 ft 274 kts 164°
2026-05-06 18:50 -20.33378 31.86166 6977 ft 274 kts 166°
2026-05-06 18:50 -20.35232 31.86605 6974 ft 273 kts 166°
2026-05-06 18:50 -20.37107 31.87049 6965 ft 272 kts 167°
2026-05-06 18:50 -20.38956 31.87502 6968 ft 269 kts 168°
2026-05-06 18:51 -20.40773 31.87948 6971 ft 268 kts 169°
2026-05-06 18:51 -20.42613 31.88401 6971 ft 267 kts 168°
2026-05-06 18:51 -20.44443 31.88848 6962 ft 266 kts 167°
2026-05-06 18:51 -20.46261 31.89289 6962 ft 265 kts 167°
2026-05-06 18:52 -20.48078 31.89734 6961 ft 265 kts 167°
2026-05-06 18:52 -20.49891 31.90183 6959 ft 265 kts 168°
2026-05-06 18:52 -20.51700 31.90634 6959 ft 265 kts 168°
2026-05-06 18:52 -20.53507 31.91084 6952 ft 265 kts 168°
2026-05-06 18:53 -20.55305 31.91530 6946 ft 265 kts 168°
2026-05-06 18:53 -20.57129 31.91980 6948 ft 265 kts 168°
2026-05-06 18:53 -20.58934 31.92436 6942 ft 265 kts 167°
2026-05-06 18:53 -20.60746 31.92893 6940 ft 265 kts 167°
2026-05-06 18:54 -20.62551 31.93348 6943 ft 264 kts 167°
2026-05-06 18:54 -20.64352 31.93805 6943 ft 264 kts 167°
2026-05-06 18:54 -20.66149 31.94262 6940 ft 264 kts 167°
2026-05-06 18:54 -20.67964 31.94727 6938 ft 264 kts 168°
2026-05-06 18:55 -20.69785 31.95196 6939 ft 264 kts 167°
2026-05-06 18:55 -20.71590 31.95665 6933 ft 264 kts 167°
2026-05-06 18:55 -20.73369 31.96128 6931 ft 264 kts 167°
2026-05-06 18:55 -20.75173 31.96600 6932 ft 264 kts 167°
2026-05-06 18:56 -20.76970 31.97071 6924 ft 264 kts 167°
2026-05-06 18:56 -20.78755 31.97540 6921 ft 264 kts 167°
2026-05-06 18:56 -20.80564 31.98015 6930 ft 265 kts 167°
2026-05-06 18:56 -20.82356 31.98491 6929 ft 265 kts 167°
2026-05-06 18:57 -20.84165 31.98973 6932 ft 264 kts 167°
2026-05-06 18:57 -20.85961 31.99453 6938 ft 264 kts 167°
2026-05-06 18:57 -20.87759 31.99938 6933 ft 264 kts 167°
2026-05-06 18:57 -20.89537 32.00415 6940 ft 264 kts 167°
2026-05-06 18:58 -20.91333 32.00883 6928 ft 264 kts 169°
2026-05-06 18:58 -20.93142 32.01155 6934 ft 262 kts 171°
2026-05-06 18:58 -20.94963 32.01437 6933 ft 262 kts 173°
2026-05-06 18:58 -20.96762 32.01728 6931 ft 262 kts 174°
2026-05-06 18:59 -20.98565 32.02019 6924 ft 259 kts 174°
2026-05-06 18:59 -21.00353 32.02306 6925 ft 253 kts 173°
2026-05-06 18:59 -21.02096 32.02586 6930 ft 249 kts 173°
2026-05-06 18:59 -21.03799 32.02864 6931 ft 245 kts 173°
2026-05-06 19:00 -21.05480 32.03141 6936 ft 243 kts 173°
2026-05-06 19:00 -21.07149 32.03423 6935 ft 241 kts 173°
2026-05-06 19:00 -21.08820 32.03704 6933 ft 240 kts 173°
2026-05-06 19:00 -21.09933 32.03905 6932 ft 239 kts 171°
2026-05-06 19:01 -21.12102 32.04375 6927 ft 237 kts 170°
2026-05-06 19:01 -21.13728 32.04716 6932 ft 235 kts 170°
2026-05-06 19:01 -21.15352 32.05052 6933 ft 234 kts 171°
2026-05-06 19:01 -21.16966 32.05386 6934 ft 234 kts 171°
2026-05-06 19:02 -21.18587 32.05724 6936 ft 236 kts 171°
2026-05-06 19:02 -21.20235 32.06070 6934 ft 242 kts 171°
2026-05-06 19:02 -21.21906 32.06419 6933 ft 245 kts 171°
2026-05-06 19:02 -21.23624 32.06776 6932 ft 250 kts 171°
2026-05-06 19:03 -21.25349 32.07135 6932 ft 255 kts 171°
2026-05-06 19:03 -21.27115 32.07505 6926 ft 256 kts 171°
2026-05-06 19:03 -21.28890 32.07880 6926 ft 262 kts 171°
2026-05-06 19:03 -21.30693 32.08265 6924 ft 267 kts 171°
2026-05-06 19:04 -21.32528 32.08660 6919 ft 270 kts 170°
2026-05-06 19:04 -21.34414 32.09071 6913 ft 273 kts 170°
2026-05-06 19:04 -21.36296 32.09473 6908 ft 275 kts 170°
2026-05-06 19:04 -21.38197 32.09876 6903 ft 277 kts 170°
2026-05-06 19:05 -21.40086 32.10278 6898 ft 278 kts 170°
2026-05-06 19:05 -21.41994 32.10687 6893 ft 278 kts 171°
2026-05-06 19:05 -21.43917 32.11100 6891 ft 279 kts 171°
2026-05-06 19:05 -21.45814 32.11510 6890 ft 280 kts 170°
2026-05-06 19:06 -21.47741 32.11923 6890 ft 280 kts 170°
2026-05-06 19:06 -21.49650 32.12332 6890 ft 281 kts 170°
2026-05-06 19:06 -21.51583 32.12750 6892 ft 281 kts 170°
2026-05-06 19:06 -21.53529 32.13172 6892 ft 282 kts 170°
2026-05-06 19:07 -21.55451 32.13593 6894 ft 282 kts 170°
2026-05-06 19:07 -21.56752 32.13884 6896 ft 282 kts 170°
2026-05-06 19:07 -21.59326 32.14455 6895 ft 283 kts 171°
2026-05-06 19:07 -21.61277 32.14891 6895 ft 283 kts 170°
2026-05-06 19:08 -21.63207 32.15318 6896 ft 283 kts 170°
2026-05-06 19:08 -21.65168 32.15757 6897 ft 283 kts 170°
2026-05-06 19:08 -21.67120 32.16203 6896 ft 283 kts 170°
2026-05-06 19:08 -21.69046 32.16640 6897 ft 284 kts 170°
2026-05-06 19:09 -21.70990 32.17079 6898 ft 284 kts 170°
2026-05-06 19:09 -21.72941 32.17517 6897 ft 284 kts 169°
2026-05-06 19:09 -21.74885 32.17954 6898 ft 284 kts 169°
2026-05-06 19:09 -21.76810 32.18391 6895 ft 284 kts 170°
2026-05-06 19:10 -21.78765 32.18834 6894 ft 284 kts 170°
2026-05-06 19:10 -21.80707 32.19275 6893 ft 285 kts 170°
2026-05-06 19:10 -21.82649 32.19717 6892 ft 285 kts 169°
2026-05-06 19:10 -21.84597 32.20161 6892 ft 285 kts 169°
2026-05-06 19:11 -21.86546 32.20609 6891 ft 285 kts 169°
2026-05-06 19:11 -21.88486 32.21066 6889 ft 285 kts 169°
2026-05-06 19:11 -21.90422 32.21522 6885 ft 285 kts 169°
2026-05-06 19:11 -21.92362 32.21983 6881 ft 285 kts 169°
2026-05-06 19:12 -21.94113 32.22395 6877 ft 285 kts 169°
2026-05-06 19:12 -21.94712 32.22538 6876 ft 286 kts 169°
2026-05-06 19:12 -21.96163 32.22882 6872 ft 286 kts 169°
2026-05-06 19:12 -21.98099 32.23339 6872 ft 285 kts 169°
2026-05-06 19:13 -22.00050 32.23807 6871 ft 286 kts 169°
2026-05-06 19:13 -22.02026 32.24283 6865 ft 286 kts 169°
2026-05-06 19:13 -22.03973 32.24744 6865 ft 286 kts 169°
2026-05-06 19:13 -22.05914 32.25210 6867 ft 286 kts 169°
2026-05-06 19:14 -22.07878 32.25682 6863 ft 286 kts 169°
2026-05-06 19:14 -22.09851 32.26157 6860 ft 286 kts 169°
2026-05-06 19:14 -22.11808 32.26628 6857 ft 286 kts 169°
2026-05-06 19:14 -22.13765 32.27105 6852 ft 286 kts 169°
2026-05-06 19:15 -22.15719 32.27577 6851 ft 286 kts 169°
2026-05-06 19:15 -22.17662 32.28051 6851 ft 286 kts 169°
2026-05-06 19:15 -22.19624 32.28536 6850 ft 286 kts 169°
2026-05-06 19:15 -22.21594 32.29019 6847 ft 286 kts 169°
2026-05-06 19:16 -22.23554 32.29390 6847 ft 284 kts 174°
2026-05-06 19:16 -22.25512 32.29744 6842 ft 284 kts 174°
2026-05-06 19:16 -22.27475 32.30100 6842 ft 284 kts 173°
2026-05-06 19:16 -22.29426 32.30444 6840 ft 284 kts 172°
2026-05-06 19:17 -22.31389 32.30788 6844 ft 284 kts 173°
2026-05-06 19:17 -22.33335 32.31139 6843 ft 284 kts 173°
2026-05-06 19:17 -22.35286 32.31491 6840 ft 285 kts 173°
2026-05-06 19:17 -22.37273 32.31849 6840 ft 285 kts 173°
2026-05-06 19:18 -22.39215 32.32192 6839 ft 285 kts 173°
2026-05-06 19:18 -22.41213 32.32549 6835 ft 285 kts 173°
2026-05-06 19:18 -22.43176 32.32896 6833 ft 285 kts 173°
2026-05-06 19:18 -22.45145 32.33248 6831 ft 286 kts 173°
2026-05-06 19:19 -22.47117 32.33603 6831 ft 286 kts 173°
2026-05-06 19:19 -22.49096 32.33959 6828 ft 286 kts 173°
2026-05-06 19:19 -22.51061 32.34314 6828 ft 286 kts 173°
2026-05-06 19:19 -22.53056 32.34678 6829 ft 286 kts 173°
2026-05-06 19:20 -22.55020 32.35039 6832 ft 286 kts 173°
2026-05-06 19:20 -22.56991 32.35405 6830 ft 287 kts 173°
2026-05-06 19:20 -22.58981 32.35778 6832 ft 287 kts 173°
2026-05-06 19:20 -22.60978 32.36154 6832 ft 287 kts 173°
2026-05-06 19:21 -22.62950 32.36525 6836 ft 287 kts 172°
2026-05-06 19:21 -22.64921 32.36904 6841 ft 287 kts 172°
2026-05-06 19:21 -22.66885 32.37278 6843 ft 288 kts 172°
2026-05-06 19:21 -22.68894 32.37664 6842 ft 288 kts 172°
2026-05-06 19:22 -22.70875 32.38044 6840 ft 288 kts 172°
2026-05-06 19:22 -22.72850 32.38425 6837 ft 289 kts 172°
2026-05-06 19:22 -22.74852 32.38804 6838 ft 289 kts 172°
2026-05-06 19:22 -22.76851 32.39186 6835 ft 289 kts 172°
2026-05-06 19:23 -22.78838 32.39567 6837 ft 289 kts 172°
2026-05-06 19:23 -22.80838 32.39954 6832 ft 289 kts 172°
2026-05-06 19:23 -22.82836 32.40342 6836 ft 290 kts 173°
2026-05-06 19:23 -22.84829 32.40731 6830 ft 290 kts 172°
2026-05-06 19:24 -22.86815 32.41117 6830 ft 290 kts 172°
2026-05-06 19:24 -22.88819 32.41512 6826 ft 290 kts 172°
2026-05-06 19:24 -22.90810 32.41906 6828 ft 290 kts 172°
2026-05-06 19:24 -22.92806 32.42305 6838 ft 290 kts 172°
2026-05-06 19:25 -22.94814 32.42710 6834 ft 291 kts 172°
2026-05-06 19:25 -22.96801 32.43109 6835 ft 292 kts 172°
2026-05-06 19:25 -22.98827 32.43514 6836 ft 292 kts 172°
2026-05-06 19:25 -23.00833 32.43915 6837 ft 293 kts 172°
2026-05-06 19:26 -23.02857 32.44321 6833 ft 293 kts 172°
2026-05-06 19:26 -23.04880 32.44715 6825 ft 293 kts 172°
2026-05-06 19:26 -23.06909 32.45110 6833 ft 293 kts 172°
2026-05-06 19:26 -23.08902 32.45506 6834 ft 293 kts 172°
2026-05-06 19:27 -23.10924 32.45911 6829 ft 293 kts 172°
2026-05-06 19:27 -23.12872 32.46298 6809 ft 269 kts 172°
2026-05-06 19:27 -23.14654 32.46673 6823 ft 255 kts 171°
2026-05-06 19:27 -23.16290 32.47022 6828 ft 260 kts 172°
2026-05-06 19:28 -23.17648 32.47316 6821 ft 262 kts 172°
2026-05-06 19:28 -23.17711 32.47329 6823 ft 262 kts 172°
2026-05-06 19:28 -23.18702 32.47534 6824 ft 262 kts 172°
2026-05-06 19:29 -23.20066 32.47828 6833 ft 267 kts 172°
2026-05-06 19:29 -23.21871 32.48217 6831 ft 264 kts 172°
2026-05-06 19:29 -23.23679 32.48603 6835 ft 265 kts 172°
2026-05-06 19:29 -23.25506 32.48993 6825 ft 267 kts 172°
2026-05-06 19:30 -23.27349 32.49380 6829 ft 272 kts 172°
2026-05-06 19:30 -23.29226 32.49775 6830 ft 275 kts 172°
2026-05-06 19:30 -23.31111 32.50178 6828 ft 278 kts 172°
2026-05-06 19:30 -23.33037 32.50594 6823 ft 281 kts 171°
2026-05-06 19:31 -23.34977 32.51004 6817 ft 282 kts 171°
2026-05-06 19:31 -23.36915 32.51413 6819 ft 284 kts 171°
2026-05-06 19:31 -23.40832 32.52236 6819 ft 286 kts 171°
2026-05-06 19:32 -23.42796 32.52652 6818 ft 287 kts 171°
2026-05-06 19:32 -23.44763 32.53071 6814 ft 287 kts 171°
2026-05-06 19:32 -23.46734 32.53490 6797 ft 287 kts 171°
2026-05-06 19:32 -23.48683 32.53905 6806 ft 287 kts 172°
2026-05-06 19:33 -23.50653 32.54329 6806 ft 287 kts 172°
2026-05-06 19:33 -23.52614 32.54754 6812 ft 287 kts 171°
2026-05-06 19:33 -23.54598 32.55186 6799 ft 288 kts 172°
2026-05-06 19:33 -23.56556 32.55616 6809 ft 288 kts 171°
2026-05-06 19:34 -23.58550 32.56050 6812 ft 288 kts 171°
2026-05-06 19:34 -23.60514 32.56476 6804 ft 288 kts 171°
2026-05-06 19:34 -23.62487 32.56909 6802 ft 289 kts 171°
2026-05-06 19:34 -23.64471 32.57342 6796 ft 289 kts 171°
2026-05-06 19:35 -23.66452 32.57776 6783 ft 289 kts 171°
2026-05-06 19:35 -23.68430 32.58214 6783 ft 288 kts 171°
2026-05-06 19:35 -23.70396 32.58653 6790 ft 289 kts 171°
2026-05-06 19:35 -23.72362 32.59087 6791 ft 289 kts 171°
2026-05-06 19:36 -23.74350 32.59529 6791 ft 289 kts 171°
2026-05-06 19:36 -23.76339 32.59973 6778 ft 289 kts 171°
2026-05-06 19:36 -23.78301 32.60414 6776 ft 289 kts 171°
2026-05-06 19:36 -23.80290 32.60858 6779 ft 289 kts 171°
2026-05-06 19:37 -23.82257 32.61299 6794 ft 289 kts 171°
2026-05-06 19:37 -23.84235 32.61747 6792 ft 289 kts 171°
2026-05-06 19:37 -23.86198 32.62198 6785 ft 289 kts 172°
2026-05-06 19:37 -23.87536 32.62505 6782 ft 289 kts 170°
2026-05-06 19:38 -23.90167 32.63100 6775 ft 289 kts 171°
2026-05-06 19:38 -23.92121 32.63544 6778 ft 288 kts 169°
2026-05-06 19:38 -23.94095 32.63988 6785 ft 288 kts 170°
2026-05-06 19:38 -23.96065 32.64483 6775 ft 289 kts 165°
2026-05-06 19:39 -23.97979 32.65065 6778 ft 287 kts 167°
2026-05-06 19:39 -23.99908 32.65664 6769 ft 282 kts 167°
2026-05-06 19:39 -24.01791 32.66243 6783 ft 281 kts 167°
2026-05-06 19:39 -24.03675 32.66823 6774 ft 281 kts 166°
2026-05-06 19:40 -24.05557 32.67400 6785 ft 280 kts 165°
2026-05-06 19:40 -24.07445 32.67976 6778 ft 280 kts 165°
2026-05-06 19:40 -24.09331 32.68554 6781 ft 280 kts 166°
2026-05-06 19:40 -24.11211 32.69139 6784 ft 279 kts 166°
2026-05-06 19:41 -24.13104 32.69731 6789 ft 279 kts 166°
2026-05-06 19:41 -24.15000 32.70322 6789 ft 280 kts 166°
2026-05-06 19:41 -24.16886 32.70911 6797 ft 280 kts 166°
2026-05-06 19:41 -24.18771 32.71502 6793 ft 281 kts 166°
2026-05-06 19:42 -24.20655 32.72095 6787 ft 281 kts 166°
2026-05-06 19:42 -24.22579 32.72698 6786 ft 281 kts 166°
2026-05-06 19:42 -24.24459 32.73289 6787 ft 281 kts 165°
2026-05-06 19:42 -24.26364 32.73887 6795 ft 282 kts 166°
2026-05-06 19:43 -24.28264 32.74490 6797 ft 283 kts 165°
2026-05-06 19:43 -24.30142 32.75083 6794 ft 284 kts 165°
2026-05-06 19:43 -24.32054 32.75693 6786 ft 284 kts 165°
2026-05-06 19:43 -24.33955 32.76301 6775 ft 284 kts 165°
2026-05-06 19:44 -24.35855 32.76907 6781 ft 285 kts 166°
2026-05-06 19:44 -24.37758 32.77522 6782 ft 286 kts 165°
2026-05-06 19:44 -24.39677 32.78139 6789 ft 286 kts 166°
2026-05-06 19:44 -24.41585 32.78756 6797 ft 287 kts 166°
2026-05-06 19:45 -24.43527 32.79390 6784 ft 288 kts 165°
2026-05-06 19:45 -24.45442 32.80011 6779 ft 287 kts 165°
2026-05-06 19:45 -24.47354 32.80634 6782 ft 287 kts 166°
2026-05-06 19:45 -24.49290 32.81261 6779 ft 287 kts 165°
2026-05-06 19:46 -24.51208 32.81876 6780 ft 287 kts 165°
2026-05-06 19:46 -24.53113 32.82494 6782 ft 287 kts 166°
2026-05-06 19:46 -24.55051 32.83123 6786 ft 287 kts 165°
2026-05-06 19:46 -24.56964 32.83746 6787 ft 288 kts 165°
2026-05-06 19:47 -24.58897 32.84379 6787 ft 288 kts 165°
2026-05-06 19:47 -24.60809 32.85009 6790 ft 289 kts 165°
2026-05-06 19:47 -24.62762 32.85652 6780 ft 289 kts 165°
2026-05-06 19:47 -24.64667 32.86275 6782 ft 289 kts 165°
2026-05-06 19:48 -24.66616 32.86923 6780 ft 289 kts 166°
2026-05-06 19:48 -24.68536 32.87563 6774 ft 288 kts 165°
2026-05-06 19:48 -24.70443 32.88195 6776 ft 288 kts 165°
2026-05-06 19:48 -24.72387 32.88846 6780 ft 288 kts 165°
2026-05-06 19:49 -24.74297 32.89483 6784 ft 288 kts 165°
2026-05-06 19:49 -24.76234 32.90128 6789 ft 288 kts 165°
2026-05-06 19:49 -24.78157 32.90776 6784 ft 288 kts 165°
2026-05-06 19:49 -24.80057 32.91418 6887 ft 285 kts 165°
2026-05-06 19:50 -24.81964 32.92067 6928 ft 285 kts 165°
2026-05-06 19:50 -24.83865 32.92717 6938 ft 286 kts 165°
2026-05-06 19:50 -24.85765 32.93370 6934 ft 288 kts 165°
2026-05-06 19:50 -24.87692 32.94029 6939 ft 288 kts 165°
2026-05-06 19:51 -24.89623 32.94690 6929 ft 289 kts 165°
2026-05-06 19:51 -24.91536 32.95342 6925 ft 289 kts 164°
2026-05-06 19:51 -24.93469 32.96000 6930 ft 290 kts 165°
2026-05-06 19:51 -24.95401 32.96664 6926 ft 291 kts 165°
2026-05-06 19:52 -24.97335 32.97339 6934 ft 291 kts 165°
2026-05-06 19:52 -24.99266 32.98020 6923 ft 293 kts 165°
2026-05-06 19:52 -25.01225 32.98705 6918 ft 293 kts 165°
2026-05-06 19:52 -25.03160 32.99384 6921 ft 292 kts 164°
2026-05-06 19:53 -25.05119 33.00065 6922 ft 293 kts 164°
2026-05-06 19:53 -25.07043 33.00737 6926 ft 293 kts 164°
2026-05-06 19:53 -25.08997 33.01418 6920 ft 294 kts 164°
2026-05-06 19:53 -25.10974 33.02105 6921 ft 294 kts 164°
2026-05-06 19:54 -25.12922 33.02789 6917 ft 294 kts 164°
2026-05-06 19:54 -25.14870 33.03473 6914 ft 293 kts 165°
2026-05-06 19:54 -25.16805 33.04153 6923 ft 293 kts 165°
2026-05-06 19:54 -25.18747 33.04834 6931 ft 293 kts 164°
2026-05-06 19:55 -25.20688 33.05513 6931 ft 293 kts 164°
2026-05-06 19:55 -25.22648 33.06203 6930 ft 293 kts 164°
2026-05-06 19:55 -25.24596 33.06888 6930 ft 293 kts 164°
2026-05-06 19:55 -25.26531 33.07576 6927 ft 293 kts 164°
2026-05-06 19:56 -25.28475 33.08270 6937 ft 293 kts 165°
2026-05-06 19:56 -25.30424 33.08978 6930 ft 294 kts 164°
2026-05-06 19:56 -25.32367 33.09684 6930 ft 294 kts 164°
2026-05-06 19:56 -25.34324 33.10395 6931 ft 294 kts 164°
2026-05-06 19:57 -25.36270 33.11081 7030 ft 286 kts 168°
2026-05-06 19:57 -25.38200 33.11190 7038 ft 276 kts 193°
2026-05-06 19:57 -25.39905 33.10458 6977 ft 257 kts 220°
2026-05-06 19:57 -25.41212 33.09154 6445 ft 264 kts 237°
2026-05-06 19:58 -25.42487 33.07624 6117 ft 272 kts 224°
2026-05-06 19:58 -25.43990 33.06447 6136 ft 258 kts 227°
2026-05-06 19:58 -25.45440 33.05283 6132 ft 251 kts 225°
2026-05-06 19:58 -25.46827 33.04156 6142 ft 246 kts 223°
2026-05-06 19:59 -25.48200 33.03038 6144 ft 242 kts 223°
2026-05-06 19:59 -25.49548 33.01954 6143 ft 239 kts 223°
2026-05-06 19:59 -25.50898 33.00876 6147 ft 236 kts 224°
2026-05-06 19:59 -25.52231 32.99820 6139 ft 234 kts 224°
2026-05-06 20:00 -25.53562 32.98773 6147 ft 233 kts 224°
2026-05-06 20:00 -25.54876 32.97749 6146 ft 232 kts 224°
2026-05-06 20:00 -25.56201 32.96720 6141 ft 232 kts 223°
2026-05-06 20:00 -25.57616 32.95812 6143 ft 231 kts 220°
2026-05-06 20:01 -25.59012 32.94913 6137 ft 231 kts 220°
2026-05-06 20:01 -25.60404 32.94019 6144 ft 230 kts 218°
2026-05-06 20:01 -25.61776 32.93132 6143 ft 230 kts 218°
2026-05-06 20:01 -25.63164 32.92231 6152 ft 230 kts 218°
2026-05-06 20:02 -25.64554 32.91331 6145 ft 230 kts 219°
2026-05-06 20:02 -25.65935 32.90443 6141 ft 230 kts 218°
2026-05-06 20:02 -25.67311 32.89550 6131 ft 230 kts 218°
2026-05-06 20:02 -25.68704 32.88641 6134 ft 229 kts 219°
2026-05-06 20:03 -25.70070 32.87758 6138 ft 229 kts 219°
2026-05-06 20:03 -25.71457 32.86859 6140 ft 230 kts 218°
2026-05-06 20:03 -25.72843 32.85961 6136 ft 230 kts 218°
2026-05-06 20:03 -25.74223 32.85070 6129 ft 230 kts 218°
2026-05-06 20:04 -25.75612 32.84166 6124 ft 230 kts 218°
2026-05-06 20:04 -25.76987 32.83268 6124 ft 230 kts 218°
2026-05-06 20:04 -25.78363 32.82371 6122 ft 229 kts 218°
2026-05-06 20:04 -25.79752 32.81471 6129 ft 229 kts 218°
2026-05-06 20:05 -25.81139 32.80585 6128 ft 229 kts 218°
2026-05-06 20:05 -25.82524 32.79703 6050 ft 232 kts 218°
2026-05-06 20:05 -25.84008 32.78715 5089 ft 273 kts 217°
2026-05-06 20:05 -25.85589 32.77661 5619 ft 236 kts 220°
2026-05-06 20:06 -25.86896 32.76724 5657 ft 237 kts 217°
2026-05-06 20:06 -25.88286 32.75812 5701 ft 231 kts 219°
2026-05-06 20:06 -25.89704 32.74878 5695 ft 230 kts 219°
2026-05-06 20:06 -25.91111 32.73947 5695 ft 230 kts 219°
2026-05-06 20:07 -25.92479 32.73035 5693 ft 229 kts 218°
2026-05-06 20:07 -25.93864 32.72107 5696 ft 229 kts 218°
2026-05-06 20:07 -25.95220 32.71198 5696 ft 229 kts 218°
2026-05-06 20:07 -25.96587 32.70285 5701 ft 229 kts 218°
2026-05-06 20:08 -25.97960 32.69368 5699 ft 229 kts 218°
2026-05-06 20:08 -25.99324 32.68461 5675 ft 229 kts 218°
2026-05-06 20:08 -26.00715 32.67529 5444 ft 240 kts 217°
2026-05-06 20:08 -26.02183 32.66530 5039 ft 256 kts 217°
2026-05-06 20:09 -26.03734 32.65458 4608 ft 268 kts 216°
2026-05-06 20:09 -26.05323 32.64366 4519 ft 262 kts 216°
2026-05-06 20:09 -26.06822 32.63315 4667 ft 245 kts 220°
2026-05-06 20:09 -26.07746 32.61953 4923 ft 210 kts 257°
2026-05-06 20:10 -26.07723 32.60357 4279 ft 216 kts 295°
2026-05-06 20:10 -26.06742 32.59259 4347 ft 193 kts 336°
2026-05-06 20:10 -26.05398 32.58926 3818 ft 209 kts 349°
2026-05-06 20:10 -26.04162 32.57983 3115 ft 233 kts 312°
2026-05-06 20:11 -26.03192 32.56482 2721 ft 235 kts 308°
2026-05-06 20:11 -26.02238 32.54997 2135 ft 233 kts 309°
2026-05-06 20:11 -26.01745 32.54271 2188 ft 190 kts 311°
2026-05-06 20:12 -26.01504 32.53925 2174 ft 171 kts 312°
2026-05-06 20:12 -26.00725 32.53187 2100 ft 126 kts 351°
2026-05-06 20:12 -25.99910 32.53322 1833 ft 127 kts 14°
2026-05-06 20:12 -25.99053 32.53537 1471 ft 125 kts 13°
2026-05-06 20:13 -25.98240 32.53741 1189 ft 114 kts 15°
2026-05-06 20:13 -25.97520 32.54057 984 ft 107 kts 28°
2026-05-06 20:13 -25.96871 32.54427 941 ft 102 kts 24°
2026-05-06 20:13 -25.96231 32.54767 920 ft 102 kts 26°
2026-05-06 20:14 -25.95598 32.55115 901 ft 100 kts 28°
2026-05-06 20:14 -25.94971 32.55505 820 ft 103 kts 29°
2026-05-06 20:14 -25.94322 32.55902 641 ft 106 kts 27°
2026-05-06 20:14 -25.93684 32.56273 474 ft 103 kts 27°
2026-05-06 20:15 -25.93050 32.56665 309 ft 103 kts 30°
2026-05-06 20:15 -25.92424 32.57050 158 ft 97 kts 29°
2026-05-06 20:15 -25.91879 32.57383 134 ft 79 kts 28°
2026-05-06 20:15 -25.91446 32.57645 135 ft 61 kts 28°
2026-05-06 20:16 -25.91128 32.57843 140 ft 40 kts 28°
2026-05-06 20:16 -25.91017 32.57953 142 ft 16 kts 109°
2026-05-06 20:16 -25.91112 32.58001 142 ft 15 kts 165°
2026-05-06 20:16 -25.91214 32.57999 142 ft 15 kts 206°
2026-05-06 20:17 -25.91310 32.57937 141 ft 16 kts 209°
2026-05-06 20:17 -25.91416 32.57876 138 ft 18 kts 206°
2026-05-06 20:17 -25.91530 32.57805 136 ft 19 kts 210°
2026-05-06 20:17 -25.91645 32.57733 135 ft 18 kts 209°
2026-05-06 20:18 -25.91758 32.57663 135 ft 18 kts 209°
2026-05-06 20:18 -25.91869 32.57594 134 ft 18 kts 208°
2026-05-06 20:18 -25.91947 32.57548 134 ft 0 kts 207°
2026-05-06 20:19 -25.91995 32.57519 135 ft 14 kts 208°
2026-05-06 20:19 -25.92097 32.57459 135 ft 17 kts 204°
2026-05-06 20:19 -25.92202 32.57398 135 ft 16 kts 211°
2026-05-06 20:19 -25.92281 32.57369 135 ft 8 kts 147°
2026-05-06 20:20 -25.92307 32.57412 135 ft 0 kts 120°